San Jose, Costa Rica

8:13 PM CST on April 28, 2017 (GMT -0600)
Juan Santamaria International

Weather History for MROC - August, 2013

Change the Weather History Date:

Wednesday, August 14, 2013

  Actual Average Record
Temperature  
Mean Temperature 74 °F -  
Max Temperature 82 °F 80 °F 87 °F (1997)
Min Temperature 66 °F 64 °F 62 °F (1999)
Cooling Degree Days 9    
Growing Degree Days 24 (Base 50)    
Moisture  
Dew Point 68 °F    
Average Humidity 84    
Maximum Humidity 100    
Minimum Humidity 61    
Precipitation  
Precipitation 0.04 in 0.41 in - ()
Sea Level Pressure  
Sea Level Pressure 29.91 in    
Wind  
Wind Speed 4 mph ()    
Max Wind Speed 15 mph    
Max Gust Speed -    
Visibility 5.0 miles    
Events Fog , Rain    
Averages and records for this station are not official NWS values.
T = Trace of Precipitation, MM = Missing Value Source: Averaged Metar Reports

Daily Weather History Graph

Daily Weather History Graph

Search for Another Location

Airport or City:

Trip Planner

Search our weather history database for the weather conditions in past years. The results will help you decide how hot, cold, wet, or windy it might be!

Date:

Astronomy

Aug. 14, 2013 Rise Set
Actual Time 5:27 AM CST 5:55 PM CST
Civil Twilight 5:06 AM CST 6:16 PM CST
Nautical Twilight 4:40 AM CST 6:42 PM CST
Astronomical Twilight 4:15 AM CST 7:07 PM CST
Moon 11:53 AM CST (8/14) 11:52 PM CST (8/14)
Length of Visible Light 13h 10m
Length of Day
12h 27m
First Quarter, 53% of the Moon is Illuminated
Aug 14
First Quarter
Aug 20
Full
Aug 28
Last Quarter
Sep 5
New
Sep 12
First Quarter

Hourly Weather History & Observations

Time (CST) Temp. Heat Index Dew Point Humidity Pressure Visibility Wind Dir Wind Speed Gust Speed Precip Events Conditions
12:00 AM 69 °F - 68 °F 96% 29.80 in 2 mi Calm Calm - -   Mist
12:00 AM 69.8 °F - 68.0 °F 94% 29.99 in 2.5 mi Calm Calm - N/A   Mostly Cloudy
1:00 AM 69.8 °F - 68.0 °F 94% 29.97 in 1.9 mi Calm Calm - N/A   Mostly Cloudy
2:00 AM 69.8 °F - 68.0 °F 94% 29.95 in 0.9 mi WSW 2.3 mph - N/A   Mostly Cloudy
3:00 AM 69 °F - 67 °F 93% 29.78 in 5 mi WNW 2.3 mph - -   Mist
3:00 AM 68.0 °F - 68.0 °F 100% 29.94 in 5.0 mi WNW 2.3 mph - N/A   Mostly Cloudy
4:00 AM 68.0 °F - 68.0 °F 100% 29.94 in 3.1 mi South 2.3 mph - N/A   Mostly Cloudy
5:00 AM 66.2 °F - 66.2 °F 100% 29.95 in 6.2 mi NE 3.5 mph - N/A   Mostly Cloudy
6:00 AM 67 °F - 65 °F 92% 29.82 in 6 mi NE 2.3 mph - -   Mist
6:00 AM 66.2 °F - 64.4 °F 94% 29.97 in 6.2 mi NE 2.3 mph - N/A   Scattered Clouds
7:00 AM 71.6 °F - 66.2 °F 83% 29.98 in - NNE 2.3 mph - N/A   Clear
8:00 AM 78.8 °F - 66.2 °F 65% 29.99 in - Calm Calm - N/A   Clear
9:00 AM 77 °F - 66 °F 62% 29.81 in 12 mi WSW 3.5 mph - -   Clear
9:00 AM 77.0 °F - 66.2 °F 69% 29.99 in - WSW 3.5 mph - N/A   Clear
10:00 AM 78.8 °F - 68.0 °F 69% 29.97 in 6.2 mi WSW 8.1 mph - N/A   Partly Cloudy
11:00 AM 80.6 °F 83.9 °F 69.8 °F 70% 29.97 in 6.2 mi WSW 8.1 mph - N/A   Scattered Clouds
12:00 PM 79 °F - 68 °F 62% 29.77 in 12 mi WSW 10.4 mph - -   Partly Cloudy
12:00 PM 78.8 °F - 68.0 °F 69% 29.96 in 6.2 mi WSW 10.4 mph - N/A   Scattered Clouds
1:00 PM 78.8 °F - 68.0 °F 69% 29.93 in 6.2 mi WSW 10.4 mph - N/A   Scattered Clouds
2:00 PM 82.4 °F 85.4 °F 68.0 °F 62% 29.91 in 6.2 mi WSW 9.2 mph - N/A   Scattered Clouds
3:00 PM 81 °F - 70 °F 61% 29.72 in 12 mi WSW 15.0 mph - -   Mostly Cloudy
3:00 PM 80.6 °F 83.9 °F 69.8 °F 70% 29.89 in 6.2 mi WSW 15.0 mph - N/A   Scattered Clouds
4:00 PM 77.0 °F - 69.8 °F 78% 29.88 in 6.2 mi WSW 12.7 mph - N/A   Scattered Clouds
5:00 PM 75.2 °F - 69.8 °F 83% 29.91 in 6.2 mi SW 11.5 mph - N/A Rain Rain
6:00 PM 72 °F - 71 °F 94% 29.78 in 3 mi WSW 9.2 mph - -   Mist
6:00 PM 73.4 °F - 69.8 °F 88% 29.93 in 3.1 mi WSW 9.2 mph - N/A   Mostly Cloudy
7:00 PM 71.6 °F - 69.8 °F 94% 29.95 in 2.5 mi WSW 5.8 mph - N/A Rain Light Rain
8:00 PM 71.6 °F - 69.8 °F 94% 29.97 in 3.1 mi West 4.6 mph - N/A   Mostly Cloudy
9:00 PM 71 °F - 70 °F 94% 29.83 in 3 mi SW 2.3 mph - - Fog Heavy Fog
9:00 PM 71.6 °F - 69.8 °F 94% 29.98 in 3.1 mi SW 2.3 mph - N/A   Mostly Cloudy
10:00 PM 69.8 °F - 69.8 °F 100% 29.99 in 1.2 mi WSW 2.3 mph - N/A   Scattered Clouds
11:00 PM 69.8 °F - 69.8 °F 100% 29.99 in 1.2 mi Calm Calm - N/A   Scattered Clouds